Observations for Trim Patrick St
| Time | AQI | Temp °C | Hum % | Pres Pa | CO μg/m³ | H₂S μg/m³ | NO μg/m³ | NO₂ μg/m³ | O₃ μg/m³ | SO₂ μg/m³ | PM1 μg/m³ | PM2.5 μg/m³ | PM10 μg/m³ |
|---|---|---|---|---|---|---|---|---|---|---|---|---|---|
| Wednesday 5 August 2026 | |||||||||||||
| 20:49 | 2 | 16.9 | 60 | 74,102 | 0 | 2.59 | 2.53 | 8.76 | 64.92 | 0 | 2 | 6.54 | 7.2 |
| 20:48 | 2 | 17 | 59 | 73,980 | 0 | 2.59 | 2.5 | 8.04 | 56.05 | 0 | 2 | 5.82 | 6.4 |
| 20:47 | 2 | 17 | 59 | 73,860 | 0 | 2.36 | 2.46 | 8.31 | 64.43 | 0 | 2 | 7.31 | 8.05 |
| 20:46 | 2 | 17 | 59 | 73,742 | 0 | 2.64 | 2.48 | 8.51 | 65.18 | 0 | 2 | 5.83 | 6.41 |
| 20:45 | 2 | 17.1 | 59 | 73,585 | 0 | 1.47 | 2.45 | 7.8 | 61.59 | 0 | 2.86 | 6.6 | 7.26 |
| 20:44 | 2 | 17.2 | 59 | 73,451 | 0 | 1.91 | 2.42 | 7.67 | 61.7 | 0 | 2 | 5.85 | 6.44 |
| 20:43 | 2 | 17.2 | 59 | 73,306 | 0 | 2.41 | 2.35 | 7.66 | 63.18 | 0 | 2 | 6.61 | 7.27 |
| 20:42 | 2 | 17.3 | 58 | 73,147 | 0 | 1.65 | 2.36 | 7.36 | 63.91 | 0 | 2 | 6.63 | 7.29 |
| 20:41 | 2 | 17.3 | 58 | 72,972 | 0 | 1.41 | 2.29 | 7.46 | 62.83 | 0 | 2.86 | 7.38 | 8.12 |
| 20:40 | 2 | 17.4 | 58 | 72,833 | 0 | 0.31 | 2.18 | 7.2 | 58.72 | 0 | 2 | 6.66 | 7.32 |
| 20:39 | 2 | 17.4 | 58 | 72,691 | 0 | 0.15 | 2.23 | 7.47 | 58.38 | 0 | 2 | 6.67 | 7.34 |
| 20:38 | 2 | 17.5 | 58 | 72,558 | 0 | 0.8 | 2.3 | 7.59 | 59.71 | 0 | 2 | 6.66 | 7.33 |
| 20:37 | 2 | 17.5 | 58 | 72,450 | 0 | 0.28 | 2.12 | 6.47 | 60.01 | 0 | 2.86 | 7.44 | 8.18 |
| 20:36 | 2 | 17.6 | 57 | 72,332 | 0 | 0 | 2.25 | 6.3 | 61.35 | 0 | 2 | 5.95 | 6.54 |
| 20:35 | 2 | 17.6 | 57 | 72,216 | 0 | 0 | 2.24 | 6.4 | 60.87 | 0 | 2 | 5.96 | 6.56 |
| 20:33 | 2 | 17.7 | 57 | 71,992 | 0 | 0 | 2.14 | 5.29 | 61.82 | 0 | 2 | 7.48 | 8.23 |
| 20:32 | 2 | 17.8 | 57 | 71,978 | 0 | 0 | 2.22 | 6.57 | 60.22 | 0 | 2.86 | 6.75 | 7.42 |
| 20:31 | 2 | 17.8 | 56 | 71,957 | 0.03 | 0 | 2.11 | 5.02 | 59.39 | 0 | 2 | 6.76 | 7.44 |
| 20:29 | 2 | 17.9 | 56 | 72,094 | 0 | 0 | 2.15 | 5.61 | 60.8 | 0 | 2 | 6.76 | 7.44 |
| 20:28 | 2 | 17.9 | 56 | 72,177 | 0 | 0 | 2.21 | 6.4 | 60.2 | 0 | 2.86 | 6.77 | 7.45 |